Weather History for Douglas, WY

Change the Weather History Date:

Sunday, January 6, 2013

  Actual Average Record
Temperature  
Mean Temperature 22 °F 25 °F  
Max Temperature 49 °F 39 °F 60 °F (2006)
Min Temperature -5 °F 11 °F -16 °F (2004)
Degree Days  
Heating Degree Days 43 40  
Month to date heating degree days 278 242  
Since 1 July heating degree days 2905 3331  
Cooling Degree Days 0 0  
Month to date cooling degree days 0 0  
Year to date cooling degree days 0 0  
Moisture  
Dew Point 5 °F    
Average Humidity 54    
Maximum Humidity 86    
Minimum Humidity 22    
Precipitation  
Precipitation 0.00 in 0.01 in 0.03 in (2010)
Month to date precipitation T 0.07  
Year to date precipitation T 0.07  
Sea Level Pressure  
Sea Level Pressure 30.18 in    
Wind  
Wind Speed 6 mph (West)    
Max Wind Speed 31 mph    
Max Gust Speed 37 mph    
Visibility 10 miles    
Events      
T = Trace of Precipitation, MM = Missing Value Source: NWS Daily Summary

Daily Weather History Graph

Daily Weather History Graph

Search for Another Location

Airport:

Trip Planner

Search our weather history database for the weather conditions in past years. The results will help you decide how hot, cold, wet, or windy it might be!

Date:

Astronomy

Jan. 06, 2013 Rise Set
Actual Time 7:32 AM MST 4:43 PM MST
Civil Twilight 7:00 AM MST 5:15 PM MST
Nautical Twilight 6:24 AM MST 5:50 PM MST
Astronomical Twilight 5:50 AM MST 6:24 PM MST
Moon 1:46 AM MST (1/6) 12:14 PM MST (1/6)
Length of Visible Light 10h 14m
Length of Day
9h 11m
Waning Crescent, 32% of the Moon is Illuminated
Jan 6
Waning Crescent
Jan 11
New
Jan 18
First Quarter
Jan 26
Full
Feb 3
Last Quarter

Hourly Weather History & Observations

Time (MST) Temp. Windchill Dew Point Humidity Pressure Visibility Wind Dir Wind Speed Gust Speed Precip Events Conditions
12:53 AM 3.0 °F -6.4 °F -2.0 °F 80% 30.37 in 10.0 mi South 4.6 mph - N/A   Clear
1:53 AM 3.0 °F - -0.9 °F 84% 30.35 in 10.0 mi Calm Calm - N/A   Clear
2:53 AM 1.0 °F - -4.0 °F 79% 30.34 in 10.0 mi Calm Calm - N/A   Clear
3:53 AM -0.0 °F - -5.1 °F 79% 30.32 in 10.0 mi Calm Calm - N/A   Clear
4:53 AM -2.9 °F -11.2 °F -7.1 °F 82% 30.36 in 10.0 mi South 3.5 mph - N/A   Clear
5:53 AM -2.9 °F - -8.0 °F 79% 30.36 in 10.0 mi Calm Calm - N/A   Clear
6:53 AM -2.9 °F - -8.0 °F 79% 30.35 in 10.0 mi Calm Calm - N/A   Clear
7:53 AM -0.0 °F - -4.0 °F 83% 30.34 in 10.0 mi Calm Calm - N/A   Clear
9:53 AM 12.9 °F 5.2 °F 6.1 °F 74% 30.29 in 10.0 mi South 4.6 mph - N/A   Clear
11:53 AM 28.0 °F 21.7 °F 14.0 °F 56% 30.17 in 10.0 mi SSE 5.8 mph - N/A   Clear
12:53 PM 44.1 °F 40.8 °F 10.0 °F 25% 30.07 in 10.0 mi West 5.8 mph - N/A   Clear
1:53 PM 46.9 °F - 12.0 °F 24% 30.04 in 10.0 mi West 12.7 mph 21.9 mph N/A   Clear
2:53 PM 46.9 °F - 12.9 °F 25% 30.04 in 10.0 mi West 12.7 mph - N/A   Clear
3:53 PM 48.0 °F - 15.1 °F 27% 30.03 in 10.0 mi NW 13.8 mph 21.9 mph N/A   Clear
4:53 PM 45.0 °F 38.2 °F 10.0 °F 24% 30.05 in 10.0 mi West 15.0 mph - N/A   Clear
5:53 PM 44.1 °F 37.4 °F 9.0 °F 24% 30.06 in 10.0 mi West 13.8 mph 27.6 mph N/A   Clear
6:53 PM 41.0 °F 34.7 °F 10.0 °F 28% 30.07 in 10.0 mi WSW 10.4 mph - N/A   Clear
7:53 PM 37.0 °F 31.6 °F 12.0 °F 36% 30.07 in 10.0 mi NW 6.9 mph - N/A   Clear
8:53 PM 32.0 °F 24.2 °F 12.0 °F 44% 30.06 in 10.0 mi North 9.2 mph - N/A   Clear
9:53 PM 28.9 °F 21.1 °F 10.9 °F 47% 30.06 in 10.0 mi NNW 8.1 mph - N/A   Clear
10:53 PM 23.0 °F 14.7 °F 10.0 °F 58% 30.04 in 10.0 mi WNW 6.9 mph - N/A   Clear
11:53 PM 21.9 °F 11.0 °F 9.0 °F 58% 30.03 in 10.0 mi WNW 10.4 mph - N/A   Clear